Regional Weather Roundup
Issued by NWS Albany, NY

Home | Current Version | Previous Version | Text Only | Print | Product List | Glossary On
Versions: 1 2 3 4 5 6 7 8 9 10 11 12 13 14 15 16 17 18 19 20 21 22 23 24 25 26 27 28 29 30 31 32 33 34 35 36 37 38 39 40 41 42 43 44 45 46 47 48 49 50
854
ASUS41 KALY 051310
RWRALY

NEW YORK STATE HOURLY WEATHER ROUNDUP
NATIONAL WEATHER SERVICE ALBANY NY
800 AM EST FRI FEB 05 2016

NOTE: "FAIR" INDICATES FEW OR NO CLOUDS BELOW 12,000 FEET WITH NO
SIGNIFICANT WEATHER AND/OR NO OBSTRUCTIONS TO VISIBILITY.

NYZ032-033-038>043-046>054-057>066-NYZ062>081-051400-
EAST


CITY           SKY/WX    TMP DP  RH WIND       PRES   REMARKS
ALBANY         CLOUDY    34  22  61 N6        30.14S WCI  29
GLENS FALLS    CLOUDY    33  23  66 N5        30.17R WCI  29
POUGHKEEPSIE   LGT SNOW  33  26  75 NE14G24   30.13R VSB 3/4 WCI  23
NEWBURGH       LGT SNOW  30  28  93 NE9       30.12S FOG     WCI  22
MONTGOMERY     CLOUDY    33  25  72 NE3       30.11R
WHITE PLAINS   SNOW      31  28  89 N15G28    30.10R VSB 1/2 WCI  20
ISLIP          HVY SNOW  33  31  92 N20G28    30.04R VSB 1/4 WCI  21
NEW YORK CITY  LGT SNOW  34  29  82 N18G24    30.12R WCI  23
CENTRAL PARK   SNOW      32  29  88 NE13G23   30.11S VSB 1/2 WCI  22
$$

NYZ005>009-017-018-044>046-055-056-051400-
CENTRAL


CITY           SKY/WX    TMP DP  RH WIND       PRES   REMARKS
FULTON         CLOUDY    30  22  72 N7        30.25R WCI  23
SYRACUSE       CLOUDY    29  24  82 NW10      30.24R WCI  20
ROME           CLOUDY    27  24  89 NW5       30.22R WCI  22
ELMIRA         CLOUDY    30  24  78 N10       30.19F WCI  21
BINGHAMTON     CLOUDY    28  18  66 N14       30.13R WCI  17
MONTICELLO     CLOUDY    30  14  51 N12G22    30.09R WCI  21
$$

NYZ026>034-041>043-051400-
NORTH


CITY           SKY/WX    TMP DP  RH WIND       PRES   REMARKS
WATERTOWN      PTCLDY    22  18  85 N3        30.27R
FORT DRUM      NOT AVBL
MASSENA        CLEAR     22  14  71 NW5       30.26R WCI  16
SARANAC LAKE   CLOUDY    24  14  65 VRB7      30.10S WCI  16
PLATTSBURGH    CLOUDY    29  21  72 NE13      30.17F WCI  19
$$

NYZ001>004-010>016-019>021-051400-
WEST


CITY           SKY/WX    TMP DP  RH WIND       PRES   REMARKS
NIAGARA FALLS  FLURRIES  29  25  85 CALM      30.28R
BUFFALO        FLURRIES  29  25  85 N5        30.28R WCI  24
DUNKIRK        LGT SNOW  29  26  89 N9        30.29R FOG     WCI  20
JAMESTOWN      CLOUDY    25  21  86 W15       30.21R WCI  12
WELLSVILLE     LGT SNOW  26  23  88 VRB7      30.16R FOG     WCI  18
ROCHESTER      FLURRIES  29  25  85 CALM      30.27R
PENN YAN       CLOUDY    29  21  72 N9        30.24R WCI  20
$$

             KEY
       WCI = WIND CHILL INDEX
       VSB = VISIBILITY
       HX  = HEAT INDEX
$$




USA.gov is the U.S. government's official web portal to all federal, state and local government web resources and services.